Location: Wien
(48.1954°N, 16.3806°E)
Time: 14:24:11
(UTC+02:00)

ISS - Visible Passes

Search period start: 22 September 2020 00:00
Search period end: 02 October 2020 00:00
Orbit: 419 x 420 km, 51.6° (Epoch: 22 September)

Date Brightness Start Highest point End Pass type
(mag) Time Alt. Az. Time Alt. Az. Time Alt. Az.
22 Sep -3.7 20:07:30 10° WSW 20:10:52 76° NNW 20:13:00 21° ENE visible
22 Sep -1.1 21:44:42 10° WNW 21:45:58 20° WNW 21:45:58 20° WNW visible
23 Sep -3.8 19:20:05 10° WSW 19:23:27 81° SSE 19:26:51 10° ENE visible
23 Sep -2.9 20:57:11 10° W 21:00:24 45° N 21:00:24 45° N visible
24 Sep -3.1 20:09:38 10° W 20:12:57 50° N 20:14:48 23° ENE visible
24 Sep -0.8 21:46:48 10° WNW 21:47:45 17° WNW 21:47:45 17° WNW visible
25 Sep -3.3 19:22:06 10° W 19:25:27 59° NNW 19:28:48 10° ENE visible
25 Sep -2.7 20:59:19 10° WNW 21:02:06 42° NNW 21:02:06 42° NNW visible
26 Sep -2.9 20:11:47 10° WNW 20:15:03 44° N 20:16:25 28° NE visible
26 Sep -0.6 21:48:44 10° WNW 21:49:22 15° WNW 21:49:22 15° WNW visible
27 Sep -3.0 19:24:14 10° W 19:27:30 45° N 19:30:43 10° ENE visible
27 Sep -2.5 21:01:17 10° WNW 21:03:40 40° NW 21:03:40 40° NW visible
28 Sep -3.3 20:13:48 10° WNW 20:17:06 51° N 20:17:58 39° ENE visible
28 Sep -0.4 21:50:40 10° WNW 21:50:56 12° WNW 21:50:56 12° WNW visible
29 Sep -3.1 19:26:17 10° WNW 19:29:33 46° N 19:32:17 14° ENE visible
29 Sep -2.1 21:03:09 10° WNW 21:05:14 35° WNW 21:05:14 35° WNW visible
30 Sep -3.8 20:15:39 10° WNW 20:19:03 78° NNE 20:19:33 60° E visible
01 Oct -3.5 19:28:09 10° WNW 19:31:31 61° NNE 19:33:54 18° E visible
01 Oct -1.6 21:05:06 10° WNW 21:06:52 25° W 21:06:52 25° W visible
